Location: Makakahi
(40.6833°S, 175.6000°E)
Time: 16:34:07
(UTC+00:00)

Helios 1B rocket - Visible Passes

Search period start: 07 October 2024 00:00
Search period end: 17 October 2024 00:00
Orbit: 523 x 534 km, 98.2° (Epoch: 06 October)

Date Brightness Start Highest point End Pass type
(mag) Time Alt. Az. Time Alt. Az. Time Alt. Az.
07 Oct 3.4 08:23:21 10° S 08:27:07 45° WSW 08:30:49 10° NW visible
08 Oct 2.7 08:12:11 10° S 08:16:05 64° WSW 08:19:55 10° NNW visible
09 Oct 2.2 08:01:03 10° SSE 08:04:59 89° WSW 08:08:51 10° NNW visible
10 Oct 2.2 07:49:54 10° SSE 07:53:48 65° ENE 07:57:38 10° N visible
10 Oct 5.8 09:27:14 10° WSW 09:27:26 10° WSW 09:27:38 10° WSW visible
11 Oct 2.5 07:38:46 10° SSE 07:42:33 45° E 07:46:15 10° N visible
11 Oct 5.4 09:14:22 10° SSW 09:16:20 14° WSW 09:18:16 10° W visible
12 Oct 2.9 07:27:39 10° SSE 07:31:12 32° E 07:34:41 10° NNE visible
12 Oct 5.1 09:02:28 10° SSW 09:05:08 18° WSW 09:07:47 10° WNW visible
13 Oct 3.4 07:16:35 10° SE 07:19:47 24° E 07:22:55 10° NNE visible
13 Oct 4.6 08:50:44 10° SSW 08:53:52 24° WSW 08:56:59 10° WNW visible
14 Oct 3.8 07:05:37 10° SE 07:08:16 17° E 07:10:54 10° NE visible
14 Oct 4.1 08:39:03 10° S 08:42:32 32° WSW 08:45:59 10° NW visible
15 Oct 3.4 08:27:23 10° S 08:31:07 44° WSW 08:34:46 10° NW visible
16 Oct 2.7 08:15:45 10° S 08:19:37 63° WSW 08:23:25 10° NNW visible
